METAR Formatted Surface Weather Observation
Issued by NWS

Home | Current Version | Previous Version | Text Only | Print | Product List | Glossary On
Versions: 1 2 3 4 5 6 7 8 9 10 11 12 13 14 15 16 17 18 19
000
SAUS45 KFGZ 311357
MTRRQE
METAR KRQE 311353Z AUTO 00000KT 10SM CLR 18/13 A3032 RMK AO2 SLP128
T01830128 TSNO



USA.gov is the U.S. government's official web portal to all federal, state and local government web resources and services.